User: anonymous   Login
Location: Syracuse
(43.0480°N, 76.1480°W)
Time: 05:22:10
(UTC-05:00)
Language:

Cosmos 1140 Rocket - Orbit

View from above orbital plane
View from above orbital plane
View from above satellite
View from above satellite

Ground track
Ground track

The orbit data is extracted from the following two-line orbital elements,

1 11574U 79089B   17054.59351858 -.00000006  00000-0  63428-5 0  9997
2 11574  74.0681  68.7169 0015882 357.5128   2.5946 14.40618100960789
Epoch (UTC): 23 February 2017 14:14:40
Eccentricity: 0.0015882
inclination: 74.0681°
perigee height: 745 km
apogee height: 768 km
right ascension of ascending node: 68.7169°
argument of perigee: 357.5128°
revolutions per day: 14.40618100
mean anomaly at epoch: 2.5946°
orbit number at epoch: 96078

The dashed part of the orbit path shows where the satellite is in the earth's shadow,  

DLR